H1 CPF 2 NER 2023 6 19 9 170 01 glonass143 H2 2007501 9143 46805 2023 6 19 0 0 0 2023 6 22 23 45 0 900 1 1 0 0 0 1 H9 10 0 60114 0.00000 0 -1811668.141 -12049779.745 -22398479.719 10 0 60114 900.00000 0 241763.097 -13814802.707 -21432675.840 10 0 60114 1800.00000 0 2056583.493 -15624609.813 -20050257.801 10 0 60114 2700.00000 0 3603387.347 -17418523.836 -18278173.161 10 0 60114 3600.00000 0 4865004.635 -19133063.027 -16150932.653 10 0 60114 4500.00000 0 5836956.180 -20704541.022 -13709934.178 10 0 60114 5400.00000 0 6527372.542 -22071693.244 -11002653.590 10 0 60114 6300.00000 0 6956381.951 -23178219.811 -8081718.221 10 0 60114 7200.00000 0 7154994.777 -23975138.395 -5003881.302 10 0 60114 8100.00000 0 7163533.209 -24422848.563 -1828917.505 10 0 60114 9000.00000 0 7029673.759 -24492821.145 1381538.780 10 0 60114 9900.00000 0 6806186.397 -24168842.044 4565189.569 10 0 60114 10800.00000 0 6548466.663 -23447758.564 7660280.445 10 0 60114 11700.00000 0 6311965.596 -22339697.252 10606795.291 10 0 60114 12600.00000 0 6149626.384 -20867744.308 13347615.483 10 0 60114 13500.00000 0 6109436.037 -19067102.087 15829621.357 10 0 60114 14400.00000 0 6232195.396 -16983756.839 18004715.126 10 0 60114 15300.00000 0 6549601.364 -14672713.083 19830746.025 10 0 60114 16200.00000 0 7082722.115 -12195867.747 21272320.562 10 0 60114 17100.00000 0 7840929.544 -9619611.794 22301482.989 10 0 60114 18000.00000 0 8821334.163 -7012258.233 22898253.549 10 0 60114 18900.00000 0 10008746.846 -4441402.213 23051014.641 10 0 60114 19800.00000 0 11376169.989 -1971321.646 22756737.797 10 0 60114 20700.00000 0 12885798.798 339474.919 22021047.039 10 0 60114 21600.00000 0 14490492.175 2440452.505 20858117.124 10 0 60114 22500.00000 0 16135653.257 4290915.465 19290407.976 10 0 60114 23400.00000 0 17761442.295 5861457.971 17348239.562 10 0 60114 24300.00000 0 19305230.532 7134939.519 15069214.408 10 0 60114 25200.00000 0 20704193.270 8106945.223 12497497.793 10 0 60114 26100.00000 0 21897933.881 8785711.999 9682968.600 10 0 60114 27000.00000 0 22831028.808 9191524.035 6680256.446 10 0 60114 27900.00000 0 23455386.265 9355603.258 3547683.218 10 0 60114 28800.00000 0 23732318.734 9318541.841 346129.436 10 0 60114 29700.00000 0 23634241.010 9128343.393 -2862152.377 10 0 60114 30600.00000 0 23145921.123 8838156.202 -6014753.781 10 0 60114 31500.00000 0 22265230.160 8503795.250 -9050331.483 10 0 60114 32400.00000 0 21003358.269 8181158.846 -11909808.771 10 0 60114 33300.00000 0 19384486.699 7923650.334 -14537532.979 10 0 60114 34200.00000 0 17444928.880 7779715.184 -16882365.563 10 0 60114 35100.00000 0 15231776.084 7790598.774 -18898682.875 10 0 60114 36000.00000 0 12801104.137 7988420.732 -20547267.704 10 0 60114 36900.00000 0 10215816.187 8394648.086 -21796073.968 10 0 60114 37800.00000 0 7543211.723 9019032.385 -22620849.739 10 0 60114 38700.00000 0 4852383.355 9859056.161 -23005606.697 10 0 60114 39600.00000 0 2211549.879 10899912.471 -22942927.257 10 0 60114 40500.00000 0 -314563.458 12115018.583 -22434103.847 10 0 60114 41400.00000 0 -2667188.870 13467042.429 -21489108.108 10 0 60114 42300.00000 0 -4795722.193 14909398.709 -20126391.022 10 0 60114 43200.00000 0 -6659580.447 16388151.865 -18372518.213 10 0 60114 44100.00000 0 -8229634.653 17844245.999 -16261647.799 10 0 60114 45000.00000 0 -9489159.638 19215968.059 -13834861.150 10 0 60114 45900.00000 0 -10434262.879 20441540.809 -11139359.766 10 0 60114 46800.00000 0 -11073776.282 21461736.658 -8227544.032 10 0 60114 47700.00000 0 -11428617.286 22222402.487 -5155991.973 10 0 60114 48600.00000 0 -11530647.956 22676789.406 -1984358.096 10 0 60114 49500.00000 0 -11421081.683 22787589.565 1225786.106 10 0 60114 50400.00000 0 -11148506.045 22528594.506 4412147.161 10 0 60114 51300.00000 0 -10766606.312 21885905.485 7512916.807 10 0 60114 52200.00000 0 -10331686.440 20858645.024 10467967.869 10 0 60114 53100.00000 0 -9900092.673 19459139.869 13220015.676 10 0 60114 54000.00000 0 -9525648.645 17712567.621 15715722.815 10 0 60114 54900.00000 0 -9257210.109 15656081.583 17906726.274 10 0 60114 55800.00000 0 -9136442.164 13337449.972 19750567.706 10 0 60114 56700.00000 0 -9195912.319 10813265.625 21211509.568 10 0 60114 57600.00000 0 -9457579.443 8146799.883 22261222.149 10 0 60114 58500.00000 0 -9931742.059 5405588.869 22879328.903 10 0 60114 59400.00000 0 -10616490.375 2658851.218 23053800.142 10 0 60114 60300.00000 0 -11497685.567 -25156.908 22781187.796 10 0 60114 61200.00000 0 -12549467.969 -2581741.026 22066696.733 10 0 60114 62100.00000 0 -13735273.975 -4952215.232 20924090.985 10 0 60114 63000.00000 0 -15009320.262 -7086096.317 19375436.028 10 0 60114 63900.00000 0 -16318494.430 -8942954.865 17450681.284 10 0 60114 64800.00000 0 -17604573.982 -10493847.050 15187089.844 10 0 60114 65700.00000 0 -18806681.539 -11722267.994 12628525.367 10 0 60114 66600.00000 0 -19863873.836 -12624587.234 9824608.940 10 0 60114 67500.00000 0 -20717755.924 -13209948.326 6829761.428 10 0 60114 68400.00000 0 -21315010.412 -13499637.064 3702149.307 10 0 60114 69300.00000 0 -21609734.598 -13525945.116 502554.266 10 0 60114 70200.00000 0 -21565486.075 -13330577.344 -2706811.291 10 0 60114 71100.00000 0 -21156949.283 -12962670.525 -5863519.399 10 0 60114 72000.00000 0 -20371151.421 -12476507.885 -8906147.881 10 0 60114 72900.00000 0 -19208175.012 -11929026.917 -11775483.278 10 0 60114 73800.00000 0 -17681335.819 -11377226.903 -14415681.004 10 0 60114 74700.00000 0 -15816817.487 -10875586.826 -16775359.227 10 0 60114 75600.00000 0 -13652777.359 -10473603.899 -18808604.489 10 0 60114 76500.00000 0 -11237960.303 -10213557.683 -20475869.013 10 0 60114 77400.00000 0 -8629878.227 -10128595.003 -21744741.974 10 0 60114 78300.00000 0 -5892631.119 -10241217.074 -22590579.757 10 0 60114 79200.00000 0 -3094460.437 -10562233.010 -22996983.160 10 0 60114 80100.00000 0 -305136.738 -11090223.969 -22956112.630 10 0 60114 81000.00000 0 2406709.867 -11811540.549 -22468835.842 10 0 60114 81900.00000 0 4976205.694 -12700833.379 -21544705.213 10 0 60114 82800.00000 0 7344687.555 -13722094.431 -20201766.205 10 0 60114 83700.00000 0 9461893.618 -14830164.978 -18466200.511 10 0 60114 84600.00000 0 11287800.874 -15972646.544 -16371811.316 10 0 60114 85500.00000 0 12794033.895 -17092134.205 -13959360.892 10 0 60115 0.00000 0 13964787.531 -18128677.965 -11275773.848 10 0 60115 900.00000 0 14797227.249 -19022368.984 -8373220.180 10 0 60115 1800.00000 0 15301350.596 -19715940.261 -5308099.860 10 0 60115 2700.00000 0 15499319.493 -20157274.019 -2139944.086 10 0 60115 3600.00000 0 15424291.472 -20301708.747 1069741.667 10 0 60115 4500.00000 0 15118801.212 -20114049.301 4258671.473 10 0 60115 5400.00000 0 14632761.693 -19570195.340 7364986.084 10 0 60115 6300.00000 0 14021170.187 -18658319.604 10328449.871 10 0 60115 7200.00000 0 13341616.393 -17379546.390 13091614.430 10 0 60115 8100.00000 0 12651698.085 -15748101.578 15600926.555 10 0 60115 9000.00000 0 12006453.160 -13790927.545 17807759.595 10 0 60115 9900.00000 0 11455916.004 -11546778.536 19669348.825 10 0 60115 10800.00000 0 11042900.624 -9064833.490 21149613.471 10 0 60115 11700.00000 0 10801103.316 -6402883.145 22219850.304 10 0 60115 12600.00000 0 10753604.231 -3625165.685 22859286.089 10 0 60115 13500.00000 0 10911830.513 -799939.550 23055478.818 10 0 60115 14400.00000 0 11275024.583 2003107.314 22804560.303 10 0 60115 15300.00000 0 11830240.172 4715505.663 22111315.495 10 0 60115 16200.00000 0 12552866.876 7272602.178 20989096.721 10 0 60115 17100.00000 0 13407662.110 9615999.160 19459573.867 10 0 60115 18000.00000 0 14350248.112 11695736.383 17552324.514 10 0 60115 18900.00000 0 15329012.213 13472125.182 15304270.904 10 0 60115 19800.00000 0 16287331.449 14917158.961 12758973.523 10 0 60115 20700.00000 0 17166028.625 16015441.573 9965793.990 10 0 60115 21600.00000 0 17905956.841 16764594.987 6978942.607 10 0 60115 22500.00000 0 18450603.516 17175129.260 3856428.490 10 0 60115 23400.00000 0 18748603.650 17269780.411 658932.430 10 0 60115 24300.00000 0 18756055.397 17082344.276 -2551375.447 10 0 60115 25200.00000 0 18438539.068 16656055.835 -5712049.846 10 0 60115 26100.00000 0 17772752.882 16041582.909 -8761591.884 10 0 60115 27000.00000 0 16747694.971 15294719.683 -11640653.462 10 0 60115 27900.00000 0 15365340.249 14473878.327 -14293200.059 10 0 60115 28800.00000 0 13640782.249 13637485.640 -16667608.403 10 0 60115 29700.00000 0 11601832.740 12841395.637 -18717676.924 10 0 60115 30600.00000 0 9288094.930 12136428.196 -20403528.852 10 0 60115 31500.00000 0 6749548.365 11566138.333 -21692390.069 10 0 60115 32400.00000 0 4044704.210 11164910.668 -22559226.600 10 0 60115 33300.00000 0 1238407.553 10956459.639 -22987229.566 10 0 60115 34200.00000 0 -1600621.825 10952798.618 -22968138.470 10 0 60115 35100.00000 0 -4402408.046 11153721.107 -22502397.017 10 0 60115 36000.00000 0 -7098388.432 11546815.463 -21599138.883 10 0 60115 36900.00000 0 -9624022.840 12108011.991 -20276004.142 10 0 60115 37800.00000 0 -11921235.120 12802638.850 -18558790.295 10 0 60115 38700.00000 0 -13940585.885 13586941.712 -16480944.953 10 0 60115 39600.00000 0 -15643087.114 14410002.659 -14082910.298 10 0 60115 40500.00000 0 -17001584.168 15215976.993 -11411332.240 10 0 60115 41400.00000 0 -18001648.966 15946553.283 -8518149.806 10 0 60115 42300.00000 0 -18641948.480 16543532.584 -5459582.688 10 0 60115 43200.00000 0 -18934074.802 16951417.818 -2295036.840 10 0 60115 44100.00000 0 -18901845.509 17119903.896 914050.385 10 0 60115 45000.00000 0 -18580105.228 17006163.446 4105402.866 10 0 60115 45900.00000 0 -18013080.178 16576831.667 7217112.773 10 0 60115 46800.00000 0 -17252355.974 15809606.597 10188838.584 10 0 60115 47700.00000 0 -16354564.618 14694397.265 12962970.837 10 0 60115 48600.00000 0 -15378878.494 13233971.228 15485743.295 10 0 60115 49500.00000 0 -14384416.890 11444073.890 17708268.467 10 0 60115 50400.00000 0 -13427673.985 9353013.992 19587478.002 10 0 60115 51300.00000 0 -12560075.940 7000731.781 21086950.537 10 0 60115 52200.00000 0 -11825769.120 4437387.646 22177611.786 10 0 60115 53100.00000 0 -11259731.667 1721528.753 22838294.025 10 0 60115 54000.00000 0 -10886287.069 -1082091.513 23056144.799 10 0 60115 54900.00000 0 -10718081.652 -3904952.315 22826877.302 10 0 60115 55800.00000 0 -10755568.711 -6677362.622 22154857.634 10 0 60115 56700.00000 0 -10987021.015 -9331110.720 21053027.008 10 0 60115 57600.00000 0 -11389071.540 -11802057.378 19542659.809 10 0 60115 58500.00000 0 -11927760.346 -14032566.073 17652961.354 10 0 60115 59400.00000 0 -12560044.325 -15973670.130 15420512.096 10 0 60115 60300.00000 0 -13235707.106 -17586887.113 12888567.921 10 0 60115 61200.00000 0 -13899589.317 -18845605.124 10106229.095 10 0 60115 62100.00000 0 -14494045.645 -19735983.185 7127493.078 10 0 60115 63000.00000 0 -14961525.087 -20257328.000 4010208.990 10 0 60115 63900.00000 0 -15247165.150 -20421931.222 814953.802 10 0 60115 64800.00000 0 -15301289.684 -20254374.064 -2396147.811 10 0 60115 65700.00000 0 -15081703.737 -19790328.647 -5560636.604 10 0 60115 66600.00000 0 -14555687.061 -19074906.900 -8616940.516 10 0 60115 67500.00000 0 -13701600.559 -18160627.138 -11505580.427 10 0 60115 68400.00000 0 -12510036.216 -17105084.803 -14170335.514 10 0 60115 69300.00000 0 -10984460.485 -15968426.448 -16559344.592 10 0 60115 70200.00000 0 -9141322.568 -14810734.397 -18626121.289 10 0 60115 71100.00000 0 -7009621.804 -13689433.149 -20330462.794 10 0 60115 72000.00000 0 -4629951.281 -12656827.513 -21639234.171 10 0 60115 72900.00000 0 -2053056.951 -11757876.605 -22527013.000 10 0 60115 73800.00000 0 662028.164 -11028297.561 -22976582.000 10 0 60115 74700.00000 0 3450197.187 -10493078.661 -22979260.371 10 0 60115 75600.00000 0 6242738.137 -10165463.987 -22535067.873 10 0 60115 76500.00000 0 8969955.759 -10046451.693 -21652718.901 10 0 60115 77400.00000 0 11563837.636 -10124826.194 -20349447.094 10 0 60115 78300.00000 0 13960654.106 -10377722.026 -18650664.255 10 0 60115 79200.00000 0 16103384.386 -10771694.703 -16589460.505 10 0 60115 80100.00000 0 17943868.580 -11264252.570 -14205955.622 10 0 60115 81000.00000 0 19444596.844 -11805784.278 -11546514.387 10 0 60115 81900.00000 0 20580062.147 -12341799.866 -8662841.348 10 0 60115 82800.00000 0 21337621.384 -12815390.280 -5610972.839 10 0 60115 83700.00000 0 21717830.201 -13169801.052 -2450186.060 10 0 60115 84600.00000 0 21734238.952 -13351011.069 758153.363 10 0 60115 85500.00000 0 21412659.773 -13310207.330 3951782.692 10 0 60116 0.00000 0 20789936.905 -13006051.023 7068748.673 10 0 60116 900.00000 0 19912272.703 -12406638.998 10048607.609 10 0 60116 1800.00000 0 18833181.423 -11491078.197 12833591.491 10 0 60116 2700.00000 0 17611156.213 -10250606.015 15369723.418 10 0 60116 3600.00000 0 16307148.341 -8689209.376 17607856.963 10 0 60116 4500.00000 0 14981964.099 -6823715.895 19504621.591 10 0 60116 5400.00000 0 13693688.260 -4683352.451 21023256.340 10 0 60116 6300.00000 0 12495241.502 -2308788.536 22134316.418 10 0 60116 7200.00000 0 11432173.409 249296.995 22816239.758 10 0 60116 8100.00000 0 10540782.670 2932067.624 23055763.235 10 0 60116 9000.00000 0 9846642.476 5674723.947 22848180.836 10 0 60116 9900.00000 0 9363592.278 8408951.999 22197438.909 10 0 60116 10800.00000 0 9093237.811 11065525.085 21116066.369 10 0 60116 11700.00000 0 9024980.221 13576952.557 19624940.668 10 0 60116 12600.00000 0 9136573.252 15880066.722 17752893.218 10 0 60116 13500.00000 0 9395185.439 17918441.230 15536160.861 10 0 60116 14400.00000 0 9758923.088 19644540.925 13017692.912 10 0 60116 15300.00000 0 10178750.377 21021513.744 10246326.175 10 0 60116 16200.00000 0 10600725.961 22024549.899 7275843.035 10 0 60116 17100.00000 0 10968461.755 22641751.265 4163930.281 10 0 60116 18000.00000 0 11225699.803 22874474.289 971058.653 10 0 60116 18900.00000 0 11318897.688 22737131.759 -2240695.066 10 0 60116 19800.00000 0 11199712.213 22256461.631 -5408860.087 10 0 60116 20700.00000 0 10827275.018 21470293.695 -8471793.485 10 0 60116 21600.00000 0 10170162.457 20425866.285 -11369887.280 10 0 60116 22500.00000 0 9207974.863 19177764.394 -14046736.311 10 0 60116 23400.00000 0 7932456.897 17785566.687 -16450243.230 10 0 60116 24300.00000 0 6348110.189 16311301.278 -18533638.400 10 0 60116 25200.00000 0 4472271.033 14816818.092 -20256394.302 10 0 60116 26100.00000 0 2334648.666 13361189.034 -21585016.326 10 0 60116 27000.00000 0 -23657.542 11998245.731 -22493694.576 10 0 60116 27900.00000 0 -2551621.629 10774358.478 -22964804.146 10 0 60116 28800.00000 0 -5190174.765 9726549.575 -22989244.477 10 0 60116 29700.00000 0 -7874431.000 8881019.802 -22566611.659 10 0 60116 30600.00000 0 -10536162.634 8252149.164 -21705200.752 10 0 60116 31500.00000 0 -13106422.428 7842012.867 -20421838.541 10 0 60116 32400.00000 0 -15518203.787 7640431.718 -18741550.354 10 0 60116 33300.00000 0 -17709028.621 7625553.567 -16697067.690 10 0 60116 34200.00000 0 -19623355.519 7764940.057 -14328186.505 10 0 60116 35100.00000 0 -21214708.558 8017111.736 -11680988.813 10 0 60116 36000.00000 0 -22447438.697 8333485.288 -8806942.895 10 0 60116 36900.00000 0 -23298045.118 8660620.209 -5761899.847 10 0 60116 37800.00000 0 -23756002.348 8942679.313 -2605006.165 10 0 60116 38700.00000 0 -23824059.698 9123998.512 602446.261 10 0 60116 39600.00000 0 -23518001.668 9151656.855 3798210.149 10 0 60116 40500.00000 0 -22865880.540 8977937.918 6920289.524 10 0 60116 41400.00000 0 -21906754.410 8562578.387 9908139.635 10 0 60116 42300.00000 0 -20688984.489 7874708.732 12703836.818 10 0 60116 43200.00000 0 -19268163.723 6894403.961 15253195.890 10 0 60116 44100.00000 0 -17704763.917 5613778.826 17506813.857 10 0 60116 45000.00000 0 -16061599.967 4037580.962 19421020.307 10 0 60116 45900.00000 0 -14401217.102 2183256.351 20958716.841 10 0 60116 46800.00000 0 -12783309.843 80483.352 22090090.113 10 0 60116 47700.00000 0 -11262279.873 -2229806.475 22793185.405 10 0 60116 48600.00000 0 -9885033.951 -4696881.387 23054330.299 10 0 60116 49500.00000 0 -8689112.952 -7262077.488 22868400.639 10 0 60116 50400.00000 0 -7701229.399 -9861005.760 22238923.720 10 0 60116 51300.00000 0 -6936273.898 -12426008.043 21178016.502 10 0 60116 52200.00000 0 -6396831.566 -14888761.482 19706159.479 10 0 60116 53100.00000 0 -6073228.473 -17182924.469 17851809.746 10 0 60116 54000.00000 0 -5944106.089 -19246715.024 15650859.744 10 0 60116 54900.00000 0 -5977499.741 -21025314.928 13145951.057 10 0 60116 55800.00000 0 -6132375.891 -22472999.613 10385655.513 10 0 60116 56700.00000 0 -6360563.640 -23554904.829 7423538.585 10 0 60116 57600.00000 0 -6608998.972 -24248355.913 4317122.605 10 0 60116 58500.00000 0 -6822186.700 -24543703.436 1126769.688 10 0 60116 59400.00000 0 -6944775.527 -24444629.715 -2085493.906 10 0 60116 60300.00000 0 -6924136.418 -23967912.813 -5257188.697 10 0 60116 61200.00000 0 -6712834.031 -23142657.653 -8326603.950 10 0 60116 62100.00000 0 -6270885.259 -22009026.524 -11234006.040 10 0 60116 63000.00000 0 -5567707.796 -20616522.550 -13922808.773 10 0 60116 63900.00000 0 -4583674.786 -19021898.721 -16340681.952 10 0 60116 64800.00000 0 -3311208.343 -17286781.009 -18440575.871 10 0 60116 65700.00000 0 -1755364.344 -15475106.077 -20181641.260 10 0 60116 66600.00000 0 66117.428 -13650481.828 -21530026.446 10 0 60116 67500.00000 0 2123301.033 -11873582.027 -22459536.194 10 0 60116 68400.00000 0 4375060.539 -10199684.482 -22952139.582 10 0 60116 69300.00000 0 6770563.165 -8676455.935 -22998317.356 10 0 60116 70200.00000 0 9251168.024 -7342076.049 -22597242.431 10 0 60116 71100.00000 0 11752661.621 -6223778.345 -21756790.508 10 0 60116 72000.00000 0 14207737.158 -5336868.205 -20493381.000 10 0 60116 72900.00000 0 16548614.610 -4684257.815 -18831651.758 10 0 60116 73800.00000 0 18709692.618 -4256536.089 -16803974.208 10 0 60116 74700.00000 0 20630121.932 -4032569.123 -14449818.578 10 0 60116 75600.00000 0 22256193.483 -3980604.378 -11814981.757 10 0 60116 76500.00000 0 23543441.883 -4059830.659 -8950692.978 10 0 60116 77400.00000 0 24458377.089 -4222326.833 -5912614.933 10 0 60116 78300.00000 0 24979772.596 -4415315.940 -2759759.955 10 0 60116 79200.00000 0 25099457.060 -4583628.595 446657.442 10 0 60116 80100.00000 0 24822577.163 -4672270.938 3644409.125 10 0 60116 81000.00000 0 24167321.615 -4628988.092 6771459.726 10 0 60116 81900.00000 0 23164118.765 -4406714.505 9767167.387 10 0 60116 82800.00000 0 21854342.215 -3965807.469 12573455.577 10 0 60116 83700.00000 0 20288579.244 -3275969.385 15135933.497 10 0 60116 84600.00000 0 18524534.881 -2317777.537 17404943.834 10 0 60116 85500.00000 0 16624659.357 -1083756.628 19336518.091 10 0 60117 0.00000 0 14653598.053 421051.370 20893221.664 10 0 60117 900.00000 0 12675568.842 2179045.642 22044873.859 10 0 60117 1800.00000 0 10751778.154 4160553.983 22769127.659 10 0 60117 2700.00000 0 8937979.088 6324832.929 23051901.457 10 0 60117 3600.00000 0 7282274.958 8621538.501 22887652.644 10 0 60117 4500.00000 0 5823257.833 10992608.693 22279488.764 10 0 60117 5400.00000 0 4588558.915 13374480.944 21239113.749 10 0 60117 6300.00000 0 3593870.530 15700553.965 19786609.700 10 0 60117 7200.00000 0 2842480.024 17903792.839 17950057.649 10 0 60117 8100.00000 0 2325334.727 19919370.055 15765003.628 10 0 60117 9000.00000 0 2021635.034 21687233.174 13273779.250 10 0 60117 9900.00000 0 1899930.669 23154492.271 10524688.948 10 0 60117 10800.00000 0 1919673.943 24277527.406 7571078.714 10 0 60117 11700.00000 0 2033164.427 25023727.535 4470303.750 10 0 60117 12600.00000 0 2187802.713 25372787.381 1282614.796 10 0 60117 13500.00000 0 2328557.500 25317507.104 -1930015.165 10 0 60117 14400.00000 0 2400540.908 24864060.447 -5105100.674 10 0 60117 15300.00000 0 2351581.978 24031719.418 -8180865.775 10 0 60117 16200.00000 0 2134688.179 22852046.663 -11097453.589 10 0 60117 17100.00000 0 1710289.324 21367589.264 -13798099.050 10 0 60117 18000.00000 0 1048167.444 19630128.934 -16230240.996 10 0 60117 18900.00000 0 128989.586 17698562.408 -18346551.258 10 0 60117 19800.00000 0 -1054622.655 15636501.419 -20105860.154 10 0 60117 20700.00000 0 -2497533.241 13509693.426 -21473960.014 10 0 60117 21600.00000 0 -4182066.189 11383371.603 -22424271.082 10 0 60117 22500.00000 0 -6078516.469 9319645.291 -22938356.975 10 0 60117 23400.00000 0 -8146176.711 7375040.107 -23006280.000 10 0 60117 24300.00000 0 -10334837.287 5598290.296 -22626789.834 10 0 60117 25200.00000 0 -12586697.514 4028474.922 -21807342.384 10 0 60117 26100.00000 0 -14838608.439 2693574.912 -20563948.870 10 0 60117 27000.00000 0 -17024553.776 1609509.976 -18920858.473 10 0 60117 27900.00000 0 -19078265.643 779694.228 -16910081.007 10 0 60117 28800.00000 0 -20935866.046 195127.443 -14570759.148 10 0 60117 29700.00000 0 -22538423.999 -164983.633 -11948402.647 10 0 60117 30600.00000 0 -23834321.720 -332101.750 -9093999.539 10 0 60117 31500.00000 0 -24781331.271 -346782.306 -6063021.909 10 0 60117 32400.00000 0 -25348315.224 -256711.080 -2914345.703 10 0 60117 33300.00000 0 -25516480.672 -114440.546 290894.179 10 0 60117 34200.00000 0 -25280134.678 25078.663 3490490.988 10 0 60117 35100.00000 0 -24646910.174 107066.166 6622372.221 10 0 60117 36000.00000 0 -23637453.498 79471.081 9625801.180 10 0 60117 36900.00000 0 -22284587.231 -104586.268 12442550.722 10 0 60117 37800.00000 0 -20631983.857 -484593.444 15018026.659 10 0 60117 38700.00000 0 -18732405.974 -1090739.603 17302319.471 10 0 60117 39600.00000 0 -16645586.611 -1942404.281 19251164.534 10 0 60117 40500.00000 0 -14435837.898 -3047105.173 20826793.009 10 0 60117 41400.00000 0 -12169487.276 -4399949.634 21998657.740 10 0 60117 42300.00000 0 -9912247.306 -5983613.733 22744020.852 10 0 60117 43200.00000 0 -7726627.618 -7768850.827 23048392.347 10 0 60117 44100.00000 0 -5669495.583 -9715509.804 22905811.633 10 0 60117 45000.00000 0 -3789886.149 -11774022.039 22318966.667 10 0 60117 45900.00000 0 -2127150.874 -13887296.689 21299148.211 10 0 60117 46800.00000 0 -709522.350 -15992947.000 19866039.558 10 0 60117 47700.00000 0 446846.926 -18025756.257 18047344.988 10 0 60117 48600.00000 0 1338331.659 -19920281.765 15878263.147 10 0 60117 49500.00000 0 1973748.566 -21613489.095 13400814.429 10 0 60117 50400.00000 0 2373742.726 -23047306.929 10663034.346 10 0 60117 51300.00000 0 2569671.435 -24170995.725 7718047.624 10 0 60117 52200.00000 0 2602032.788 -24943230.604 4623040.306 10 0 60117 53100.00000 0 2518505.515 -25333810.449 1438149.532 10 0 60117 54000.00000 0 2371683.339 -25324920.548 -1774707.413 10 0 60117 54900.00000 0 2216600.320 -24911894.750 -4953041.671 10 0 60117 55800.00000 0 2108152.819 -24103444.123 -8035014.779 10 0 60117 56700.00000 0 2098528.333 -22921341.684 -10960649.441 10 0 60117 57600.00000 0 2234751.346 -21399575.850 -13673004.609 10 0 60117 58500.00000 0 2556451.432 -19583007.880 -16119291.054 10 0 60117 59400.00000 0 3093949.407 -17525589.587 -18251904.948 10 0 60117 60300.00000 0 3866743.722 -15288216.247 -20029358.799 10 0 60117 61200.00000 0 4882462.223 -12936304.964 -21417091.248 10 0 60117 62100.00000 0 6136324.516 -10537200.147 -22388139.939 10 0 60117 63000.00000 0 7611138.499 -8157514.815 -22923664.495 10 0 60117 63900.00000 0 9277831.919 -5860518.873 -23013309.763 10 0 60117 64800.00000 0 11096497.232 -3703683.168 -22655402.681 10 0 60117 65700.00000 0 13017906.402 -1736481.296 -21856979.391 10 0 60117 66600.00000 0 14985432.491 1459.927 -20633642.501 10 0 60117 67500.00000 0 16937297.815 1481785.287 -19009251.679 10 0 60117 68400.00000 0 18809054.756 2688353.246 -17015453.863 10 0 60117 69300.00000 0 20536195.513 3617657.494 -14691062.505 10 0 60117 70200.00000 0 22056781.686 4278712.163 -12081298.116 10 0 60117 71100.00000 0 23313983.734 4692407.404 -9236905.046 10 0 60117 72000.00000 0 24258424.085 4890364.189 -6213161.916 10 0 60117 72900.00000 0 24850225.971 4913338.269 -3068805.126 10 0 60117 73800.00000 0 25060682.380 4809242.004 135113.381 10 0 60117 74700.00000 0 24873475.526 4630868.749 3336411.682 10 0 60117 75600.00000 0 24285396.083 4433416.835 6472983.531 10 0 60117 76500.00000 0 23306532.461 4271918.361 9484000.632 10 0 60117 77400.00000 0 21959922.526 4198681.807 12311088.238 10 0 60117 78300.00000 0 20280682.631 4260856.634 14899451.455 10 0 60117 79200.00000 0 18314650.453 4498222.699 17198930.907 10 0 60117 80100.00000 0 16116598.255 4941297.666 19164967.814 10 0 60117 81000.00000 0 13748090.775 5609842.193 20759460.587 10 0 60117 81900.00000 0 11275076.393 6511825.990 21951497.105 10 0 60117 82800.00000 0 8765311.061 7642898.604 22717949.317 10 0 60117 83700.00000 0 6285721.084 8986387.913 23043919.261 10 0 60117 84600.00000 0 3899813.189 10513827.416 22923028.375 10 0 60117 85500.00000 0 1665238.333 12185991.610 22357544.597 99